Time,TemperatureF,DewpointF,PressureIn,WindDirection,WindDirectionDegrees,WindSpeedMPH,WindSpeedGustMPH,Humidity,HourlyPrecipIn,Conditions,Clouds,dailyrainin,SoftwareType,DateUTC
2013-01-09 00:00:00,72.7,69.0,30.18,SE,135,13.0,20.8,87,0.00,,,0.00,,2013-01-09 05:00:00,
2013-01-09 00:03:00,72.5,70.0,30.17,SE,135,7.2,20.8,88,0.00,,,0.00,,2013-01-09 05:03:00,
2013-01-09 00:08:00,72.3,70.0,30.17,SE,135,4.7,15.0,89,0.00,,,0.00,,2013-01-09 05:08:00,
2013-01-09 00:13:00,72.4,70.0,30.17,SSE,157,2.9,15.0,89,0.00,,,0.00,,2013-01-09 05:13:00,
2013-01-09 00:18:00,72.5,70.0,30.17,East,90,2.2,5.8,89,0.00,,,0.00,,2013-01-09 05:18:00,
2013-01-09 00:23:00,72.6,70.0,30.17,ESE,112,3.8,6.5,90,0.00,,,0.00,,2013-01-09 05:23:00,
2013-01-09 00:28:00,72.5,70.0,30.16,SE,135,3.4,5.8,90,0.00,,,0.00,,2013-01-09 05:28:00,
2013-01-09 00:33:00,72.5,70.0,30.17,SE,135,3.8,5.8,89,0.00,,,0.00,,2013-01-09 05:33:00,
2013-01-09 00:38:00,72.5,70.0,30.16,SE,135,2.0,7.2,89,0.00,,,0.00,,2013-01-09 05:38:00,
2013-01-09 00:43:00,72.5,70.0,30.16,ESE,112,3.4,7.2,89,0.00,,,0.00,,2013-01-09 05:43:00,
2013-01-09 00:48:00,72.5,70.0,30.16,ESE,112,0.4,4.0,89,0.00,,,0.00,,2013-01-09 05:48:00,
2013-01-09 00:53:00,72.4,70.0,30.16,East,90,2.7,4.9,89,0.00,,,0.00,,2013-01-09 05:53:00,
2013-01-09 00:58:00,72.4,70.0,30.16,ESE,112,1.3,5.4,89,0.00,,,0.00,,2013-01-09 05:58:00,
2013-01-09 01:03:00,72.4,70.0,30.16,East,90,3.1,5.4,88,0.00,,,0.00,,2013-01-09 06:03:00,
2013-01-09 01:08:00,72.3,69.0,30.16,East,90,1.3,4.0,88,0.00,,,0.00,,2013-01-09 06:08:00,
2013-01-09 01:13:00,72.3,70.0,30.16,East,90,2.7,4.0,88,0.00,,,0.00,,2013-01-09 06:13:00,
2013-01-09 01:18:00,72.1,69.0,30.16,East,90,0.4,3.4,88,0.00,,,0.00,,2013-01-09 06:18:00,
2013-01-09 01:23:00,72.1,69.0,30.17,ENE,67,0.7,3.6,88,0.00,,,0.00,,2013-01-09 06:23:00,
2013-01-09 01:28:00,72.1,69.0,30.17,ENE,67,1.3,4.5,89,0.00,,,0.00,,2013-01-09 06:28:00,
2013-01-09 01:33:00,72.1,70.0,30.17,East,90,0.0,4.5,89,0.00,,,0.00,,2013-01-09 06:33:00,
2013-01-09 01:38:00,72.1,70.0,30.17,East,90,0.0,1.6,89,0.00,,,0.00,,2013-01-09 06:38:00,
2013-01-09 01:43:00,72.1,70.0,30.17,ESE,112,1.1,2.9,89,0.00,,,0.00,,2013-01-09 06:43:00,
2013-01-09 01:48:00,72.1,70.0,30.17,East,90,1.1,1.8,89,0.00,,,0.00,,2013-01-09 06:48:00,
2013-01-09 01:53:00,72.2,70.0,30.17,ESE,112,1.8,2.9,90,0.00,,,0.00,,2013-01-09 06:53:00,
2013-01-09 01:58:00,72.2,70.0,30.17,ESE,112,1.6,3.8,90,0.00,,,0.00,,2013-01-09 06:58:00,
2013-01-09 02:03:00,72.3,70.0,30.17,ESE,112,5.4,6.5,91,0.00,,,0.00,,2013-01-09 07:03:00,
2013-01-09 02:08:00,72.5,71.0,30.17,SE,135,4.5,6.3,91,0.00,,,0.00,,2013-01-09 07:08:00,
2013-01-09 02:13:00,72.7,71.0,30.17,SE,135,4.5,10.1,91,0.00,,,0.00,,2013-01-09 07:13:00,
2013-01-09 02:18:00,72.9,71.0,30.17,ESE,112,4.9,11.0,90,0.00,,,0.00,,2013-01-09 07:18:00,
2013-01-09 02:23:00,73.1,71.0,30.17,ESE,112,5.6,13.0,89,0.00,,,0.00,,2013-01-09 07:23:00,
2013-01-09 02:28:00,73.2,71.0,30.17,ESE,112,6.5,11.0,89,0.00,,,0.00,,2013-01-09 07:28:00,
2013-01-09 02:33:00,73.3,71.0,30.17,ESE,112,8.3,11.2,89,0.00,,,0.00,,2013-01-09 07:33:00,
2013-01-09 02:38:00,73.4,71.0,30.17,SE,135,6.7,9.8,89,0.00,,,0.00,,2013-01-09 07:38:00,
2013-01-09 02:43:00,73.4,71.0,30.17,SE,135,11.2,12.1,89,0.00,,,0.00,,2013-01-09 07:43:00,
2013-01-09 02:48:00,73.4,70.0,30.17,SE,135,7.4,13.4,88,0.00,,,0.00,,2013-01-09 07:48:00,
2013-01-09 02:53:00,73.5,70.0,30.17,ESE,112,5.8,13.4,87,0.00,,,0.00,,2013-01-09 07:53:00,
2013-01-09 02:58:00,73.5,70.0,30.17,SE,135,4.3,11.9,87,0.00,,,0.00,,2013-01-09 07:58:00,
2013-01-09 03:03:00,73.5,71.0,30.17,SE,135,6.7,12.5,88,0.00,,,0.00,,2013-01-09 08:03:00,
2013-01-09 03:08:00,73.6,71.0,30.17,ESE,112,5.4,9.4,88,0.00,,,0.00,,2013-01-09 08:08:00,
2013-01-09 03:13:00,73.5,71.0,30.18,ESE,112,10.1,10.5,88,0.00,,,0.00,,2013-01-09 08:13:00,
2013-01-09 03:18:00,73.6,71.0,30.17,SSE,157,6.5,10.7,88,0.00,,,0.00,,2013-01-09 08:18:00,
2013-01-09 03:23:00,73.6,71.0,30.18,SSE,157,4.7,10.7,88,0.00,,,0.00,,2013-01-09 08:23:00,
2013-01-09 03:28:00,73.6,71.0,30.18,SSE,157,3.8,8.7,88,0.00,,,0.00,,2013-01-09 08:28:00,
2013-01-09 03:33:00,73.7,71.0,30.18,SE,135,6.0,9.6,88,0.00,,,0.00,,2013-01-09 08:33:00,
2013-01-09 03:38:00,73.6,71.0,30.18,SSE,157,3.1,9.2,88,0.00,,,0.00,,2013-01-09 08:38:00,
2013-01-09 03:43:00,73.6,71.0,30.18,SE,135,2.5,9.2,88,0.00,,,0.00,,2013-01-09 08:43:00,
2013-01-09 03:48:00,73.6,71.0,30.18,SE,135,2.9,5.6,88,0.00,,,0.00,,2013-01-09 08:48:00,
2013-01-09 03:53:00,73.6,71.0,30.18,ESE,112,2.7,6.3,87,0.00,,,0.00,,2013-01-09 08:53:00,
2013-01-09 03:58:00,73.5,70.0,30.18,SE,135,4.5,8.5,87,0.00,,,0.00,,2013-01-09 08:58:00,
2013-01-09 04:03:00,73.6,70.0,30.18,SE,135,4.7,8.5,87,0.00,,,0.00,,2013-01-09 09:03:00,
2013-01-09 04:08:00,73.5,70.0,30.18,SE,135,4.3,6.9,87,0.00,,,0.00,,2013-01-09 09:08:00,
2013-01-09 04:13:00,73.6,70.0,30.18,ESE,112,5.4,6.9,87,0.00,,,0.00,,2013-01-09 09:13:00,
2013-01-09 04:18:00,73.7,70.0,30.18,ESE,112,3.1,9.8,87,0.00,,,0.00,,2013-01-09 09:18:00,
2013-01-09 04:23:00,73.7,71.0,30.18,ESE,112,6.0,9.8,87,0.00,,,0.00,,2013-01-09 09:23:00,
2013-01-09 04:28:00,73.8,70.0,30.18,SSE,157,4.0,9.4,87,0.00,,,0.00,,2013-01-09 09:28:00,
2013-01-09 04:33:00,73.8,70.0,30.18,SSE,157,6.0,11.0,87,0.00,,,0.00,,2013-01-09 09:33:00,
2013-01-09 04:38:00,73.8,71.0,30.18,SE,135,3.8,11.6,87,0.00,,,0.00,,2013-01-09 09:38:00,
2013-01-09 04:43:00,73.8,70.0,30.18,SE,135,5.6,12.5,86,0.00,,,0.00,,2013-01-09 09:43:00,
2013-01-09 04:48:00,73.9,70.0,30.19,ESE,112,9.8,11.9,86,0.00,,,0.00,,2013-01-09 09:48:00,
2013-01-09 04:54:00,73.9,70.0,30.19,SSE,157,6.5,12.8,86,0.00,,,0.00,,2013-01-09 09:54:00,
2013-01-09 04:59:00,73.9,70.0,30.19,SSE,157,7.2,13.9,86,0.00,,,0.00,,2013-01-09 09:59:00,
2013-01-09 05:04:00,73.8,70.0,30.19,SE,135,13.6,17.0,85,0.00,,,0.00,,2013-01-09 10:04:00,
2013-01-09 05:09:00,73.9,70.0,30.19,ESE,112,10.7,15.2,84,0.00,,,0.00,,2013-01-09 10:09:00,
2013-01-09 05:14:00,74.0,70.0,30.19,SE,135,7.6,16.3,84,0.00,,,0.00,,2013-01-09 10:14:00,
2013-01-09 05:19:00,74.1,70.0,30.19,SE,135,10.3,15.9,84,0.00,,,0.00,,2013-01-09 10:19:00,
2013-01-09 05:24:00,74.1,70.0,30.19,ESE,112,5.8,15.9,84,0.00,,,0.00,,2013-01-09 10:24:00,
2013-01-09 05:29:00,74.0,70.0,30.19,South,180,7.4,13.6,84,0.00,,,0.00,,2013-01-09 10:29:00,
2013-01-09 05:34:00,74.0,69.0,30.19,SSE,157,9.6,16.3,84,0.00,,,0.00,,2013-01-09 10:34:00,
2013-01-09 05:39:00,74.0,70.0,30.19,SSE,157,8.7,21.3,83,0.00,,,0.00,,2013-01-09 10:39:00,
2013-01-09 05:44:00,74.0,69.0,30.19,SE,135,10.7,21.3,83,0.00,,,0.00,,2013-01-09 10:44:00,
2013-01-09 05:49:00,74.0,69.0,30.19,SE,135,8.1,21.5,83,0.00,,,0.00,,2013-01-09 10:49:00,
2013-01-09 05:54:00,73.9,69.0,30.19,ESE,112,11.4,21.5,83,0.00,,,0.00,,2013-01-09 10:54:00,
2013-01-09 05:59:00,73.8,69.0,30.19,SSE,157,7.2,16.3,83,0.00,,,0.00,,2013-01-09 10:59:00,
2013-01-09 06:04:00,73.7,69.0,30.19,SE,135,12.1,16.3,83,0.00,,,0.00,,2013-01-09 11:04:00,
2013-01-09 06:09:00,73.8,69.0,30.19,SE,135,11.4,16.8,83,0.00,,,0.00,,2013-01-09 11:09:00,
2013-01-09 06:14:00,73.7,69.0,30.19,ESE,112,13.9,16.8,83,0.00,,,0.00,,2013-01-09 11:14:00,
2013-01-09 06:19:00,73.8,69.0,30.19,SE,135,14.1,16.3,83,0.00,,,0.00,,2013-01-09 11:19:00,
2013-01-09 06:24:00,73.8,69.0,30.19,SSE,157,6.7,16.8,83,0.00,,,0.00,,2013-01-09 11:24:00,
2013-01-09 06:29:00,73.8,69.0,30.19,SSE,157,8.3,14.8,82,0.00,,,0.00,,2013-01-09 11:29:00,
2013-01-09 06:34:00,73.7,69.0,30.20,SE,135,9.8,16.6,82,0.00,,,0.00,,2013-01-09 11:34:00,
2013-01-09 06:39:00,73.6,69.0,30.20,SE,135,9.8,14.1,82,0.00,,,0.00,,2013-01-09 11:39:00,
2013-01-09 06:44:00,73.7,69.0,30.20,ESE,112,5.6,14.1,82,0.00,,,0.00,,2013-01-09 11:44:00,
2013-01-09 06:49:00,73.6,69.0,30.20,ESE,112,9.2,14.3,82,0.00,,,0.00,,2013-01-09 11:49:00,
2013-01-09 06:54:00,73.6,69.0,30.21,SE,135,6.0,14.3,83,0.00,,,0.00,,2013-01-09 11:54:00,
2013-01-09 06:59:00,73.6,69.0,30.21,SE,135,11.6,13.2,83,0.00,,,0.00,,2013-01-09 11:59:00,
2013-01-09 07:04:00,73.6,69.0,30.21,ESE,112,5.1,13.2,83,0.00,,,0.00,,2013-01-09 12:04:00,
2013-01-09 07:09:00,73.6,69.0,30.21,SE,135,10.1,14.8,84,0.00,,,0.00,,2013-01-09 12:09:00,
2013-01-09 07:14:00,73.5,69.0,30.22,ESE,112,10.5,15.2,83,0.00,,,0.00,,2013-01-09 12:14:00,
2013-01-09 07:19:00,73.7,69.0,30.22,SSE,157,5.6,15.0,83,0.00,,,0.00,,2013-01-09 12:19:00,
2013-01-09 07:24:00,73.9,69.0,30.22,SE,135,10.5,18.1,83,0.00,,,0.00,,2013-01-09 12:24:00,
2013-01-09 07:29:00,74.1,69.0,30.22,SSE,157,16.6,16.6,82,0.00,,,0.00,,2013-01-09 12:29:00,
2013-01-09 07:34:00,74.3,69.0,30.23,ESE,112,8.7,16.6,81,0.00,,,0.00,,2013-01-09 12:34:00,
2013-01-09 07:39:00,74.4,69.0,30.23,SE,135,9.4,15.7,81,0.00,,,0.00,,2013-01-09 12:39:00,
2013-01-09 07:44:00,74.4,68.0,30.23,SE,135,10.1,15.7,79,0.00,,,0.00,,2013-01-09 12:44:00,
2013-01-09 07:49:00,74.6,69.0,30.23,SSE,157,5.6,16.1,79,0.00,,,0.00,,2013-01-09 12:49:00,
2013-01-09 07:54:00,75.8,69.0,30.24,SE,135,14.1,19.7,76,0.00,,,0.00,,2013-01-09 12:54:00,
2013-01-09 07:59:00,77.1,69.0,30.24,ESE,112,12.1,17.7,73,0.00,,,0.00,,2013-01-09 12:59:00,
2013-01-09 08:04:00,78.1,70.0,30.24,SE,135,9.4,18.8,72,0.00,,,0.00,,2013-01-09 13:04:00,
2013-01-09 08:09:00,77.3,68.0,30.24,ESE,112,7.8,15.0,72,0.00,,,0.00,,2013-01-09 13:09:00,
2013-01-09 08:14:00,77.3,69.0,30.24,SE,135,11.0,15.0,73,0.00,,,0.00,,2013-01-09 13:14:00,
2013-01-09 08:19:00,77.8,69.0,30.24,ESE,112,7.2,13.4,73,0.00,,,0.00,,2013-01-09 13:19:00,
2013-01-09 08:24:00,77.7,69.0,30.25,South,180,5.4,15.2,72,0.00,,,0.00,,2013-01-09 13:24:00,
2013-01-09 08:29:00,78.0,69.0,30.25,SE,135,7.8,13.6,72,0.00,,,0.00,,2013-01-09 13:29:00,
2013-01-09 08:34:00,78.2,69.0,30.25,SSE,157,16.3,16.3,71,0.00,,,0.00,,2013-01-09 13:34:00,
2013-01-09 08:39:00,77.9,69.0,30.25,SSE,157,10.7,22.4,70,0.00,,,0.00,,2013-01-09 13:39:00,
2013-01-09 08:44:00,77.1,68.0,30.25,SE,135,9.6,22.6,71,0.00,,,0.00,,2013-01-09 13:44:00,
2013-01-09 08:49:00,77.4,69.0,30.26,SE,135,10.5,19.0,72,0.00,,,0.00,,2013-01-09 13:49:00,
2013-01-09 08:54:00,77.5,69.0,30.26,ESE,112,16.1,20.1,72,0.00,,,0.00,,2013-01-09 13:54:00,
2013-01-09 08:59:00,77.7,69.0,30.26,ESE,112,15.0,17.9,71,0.00,,,0.00,,2013-01-09 13:59:00,
2013-01-09 09:04:00,77.5,68.0,30.26,SSE,157,16.8,25.1,69,0.00,,,0.00,,2013-01-09 14:04:00,
2013-01-09 09:09:00,77.4,68.0,30.26,SE,135,15.9,20.8,71,0.00,,,0.00,,2013-01-09 14:09:00,
2013-01-09 09:14:00,77.4,68.0,30.27,SE,135,17.9,23.3,71,0.00,,,0.00,,2013-01-09 14:14:00,
2013-01-09 09:19:00,77.2,68.0,30.27,SE,135,14.8,25.1,71,0.00,,,0.00,,2013-01-09 14:19:00,
2013-01-09 09:24:00,77.4,68.0,30.27,ESE,112,12.1,25.1,70,0.00,,,0.00,,2013-01-09 14:24:00,
2013-01-09 09:29:00,77.4,69.0,30.27,SE,135,13.6,23.7,71,0.00,,,0.00,,2013-01-09 14:29:00,
2013-01-09 09:34:00,77.6,69.0,30.27,SSE,157,8.3,23.7,71,0.00,,,0.00,,2013-01-09 14:34:00,
2013-01-09 09:39:00,77.4,69.0,30.27,ESE,112,9.4,24.8,72,0.00,,,0.00,,2013-01-09 14:39:00,
2013-01-09 09:44:00,77.8,69.0,30.27,SE,135,10.1,24.8,71,0.00,,,0.00,,2013-01-09 14:44:00,
2013-01-09 09:49:00,77.7,69.0,30.27,SSE,157,12.5,31.8,70,0.00,,,0.00,,2013-01-09 14:49:00,
2013-01-09 09:54:00,77.6,69.0,30.27,SE,135,15.4,31.8,71,0.00,,,0.00,,2013-01-09 14:54:00,
2013-01-09 09:59:00,77.5,68.0,30.27,ESE,112,11.6,21.9,71,0.00,,,0.00,,2013-01-09 14:59:00,
2013-01-09 10:04:00,77.4,69.0,30.27,SSE,157,19.0,22.6,72,0.00,,,0.00,,2013-01-09 15:04:00,
2013-01-09 10:09:00,77.6,69.0,30.27,ESE,112,9.8,16.8,72,0.00,,,0.00,,2013-01-09 15:09:00,
2013-01-09 10:14:00,77.3,69.0,30.27,ESE,112,13.0,25.3,71,0.00,,,0.00,,2013-01-09 15:14:00,
2013-01-09 10:19:00,77.4,68.0,30.27,ESE,112,18.8,22.8,71,0.00,,,0.00,,2013-01-09 15:19:00,
2013-01-09 10:24:00,77.3,69.0,30.27,SE,135,11.9,22.8,71,0.00,,,0.00,,2013-01-09 15:24:00,
2013-01-09 10:29:00,77.3,69.0,30.27,ESE,112,14.8,21.9,71,0.00,,,0.00,,2013-01-09 15:29:00,
2013-01-09 10:34:00,77.8,69.0,30.27,SSE,157,10.3,21.9,71,0.00,,,0.00,,2013-01-09 15:34:00,
2013-01-09 10:39:00,77.4,68.0,30.27,ESE,112,11.6,27.5,70,0.00,,,0.00,,2013-01-09 15:39:00,
2013-01-09 10:44:00,76.9,67.0,30.27,ESE,112,18.8,30.2,70,0.00,,,0.00,,2013-01-09 15:44:00,
2013-01-09 10:49:00,77.1,68.0,30.27,SE,135,20.1,27.1,71,0.00,,,0.00,,2013-01-09 15:49:00,
2013-01-09 10:54:00,77.2,68.0,30.27,SE,135,10.7,27.1,72,0.00,,,0.00,,2013-01-09 15:54:00,
2013-01-09 10:59:00,77.3,68.0,30.27,SE,135,11.6,18.1,71,0.00,,,0.00,,2013-01-09 15:59:00,
2013-01-09 11:04:00,77.5,69.0,30.26,SE,135,11.6,19.7,72,0.00,,,0.00,,2013-01-09 16:04:00,
2013-01-09 11:09:00,77.3,68.0,30.26,SSE,157,15.9,24.2,71,0.00,,,0.00,,2013-01-09 16:09:00,
2013-01-09 11:14:00,77.2,68.0,30.26,SE,135,15.4,25.1,71,0.00,,,0.00,,2013-01-09 16:14:00,
2013-01-09 11:19:00,77.2,68.0,30.26,SE,135,13.0,22.1,72,0.00,,,0.00,,2013-01-09 16:19:00,
2013-01-09 11:24:00,77.3,69.0,30.25,ESE,112,7.6,25.3,73,0.00,,,0.00,,2013-01-09 16:24:00,
2013-01-09 11:29:00,77.8,69.0,30.25,ESE,112,18.3,23.5,72,0.00,,,0.00,,2013-01-09 16:29:00,
2013-01-09 11:34:00,77.6,69.0,30.25,ESE,112,16.6,25.3,71,0.00,,,0.00,,2013-01-09 16:34:00,
2013-01-09 11:39:00,77.4,69.0,30.25,SSE,157,21.5,21.9,72,0.00,,,0.00,,2013-01-09 16:39:00,
2013-01-09 11:44:00,77.6,68.0,30.25,SE,135,18.3,25.3,70,0.00,,,0.00,,2013-01-09 16:44:00,
2013-01-09 11:49:00,77.5,69.0,30.24,SE,135,15.0,55.7,71,0.00,,,0.00,,2013-01-09 16:49:00,
2013-01-09 11:54:00,77.4,69.0,30.24,SE,135,11.2,55.7,72,0.00,,,0.00,,2013-01-09 16:54:00,
2013-01-09 11:59:00,77.5,69.0,30.24,SSE,157,13.9,23.5,72,0.00,,,0.00,,2013-01-09 16:59:00,
2013-01-09 12:04:00,77.4,69.0,30.24,SE,135,17.9,25.7,72,0.00,,,0.00,,2013-01-09 17:04:00,
2013-01-09 12:09:00,77.4,69.0,30.23,SE,135,14.5,25.7,72,0.00,,,0.00,,2013-01-09 17:09:00,
2013-01-09 12:14:00,77.3,68.0,30.23,SE,135,26.4,26.4,71,0.00,,,0.00,,2013-01-09 17:14:00,
2013-01-09 12:19:00,77.4,69.0,30.23,East,90,12.5,25.5,72,0.00,,,0.00,,2013-01-09 17:19:00,
2013-01-09 12:24:00,77.6,69.0,30.23,ESE,112,17.7,25.5,72,0.00,,,0.00,,2013-01-09 17:24:00,
2013-01-09 12:29:00,77.6,69.0,30.23,SE,135,13.0,25.5,72,0.00,,,0.00,,2013-01-09 17:29:00,
2013-01-09 12:34:00,78.0,69.0,30.23,SE,135,19.7,26.2,71,0.00,,,0.00,,2013-01-09 17:34:00,
2013-01-09 12:39:00,78.2,69.0,30.23,SSE,157,22.1,22.1,71,0.00,,,0.00,,2013-01-09 17:39:00,
2013-01-09 12:44:00,77.8,69.0,30.23,SE,135,9.6,23.5,72,0.00,,,0.00,,2013-01-09 17:44:00,
2013-01-09 12:49:00,77.9,70.0,30.23,SE,135,14.3,23.5,72,0.00,,,0.00,,2013-01-09 17:49:00,
2013-01-09 12:54:00,77.9,70.0,30.22,SSE,157,11.4,23.5,73,0.00,,,0.00,,2013-01-09 17:54:00,
2013-01-09 12:59:00,77.5,69.0,30.22,SE,135,16.6,24.4,71,0.00,,,0.00,,2013-01-09 17:59:00,
2013-01-09 13:04:00,77.6,69.0,30.22,ESE,112,13.2,24.4,72,0.00,,,0.00,,2013-01-09 18:04:00,
2013-01-09 13:09:00,77.6,69.0,30.22,ESE,112,14.8,28.0,71,0.00,,,0.00,,2013-01-09 18:09:00,
2013-01-09 13:14:00,78.1,69.0,30.22,SE,135,12.5,28.0,71,0.00,,,0.00,,2013-01-09 18:14:00,
2013-01-09 13:19:00,77.8,69.0,30.22,ESE,112,11.9,22.6,70,0.00,,,0.00,,2013-01-09 18:19:00,
2013-01-09 13:24:00,78.0,69.0,30.22,ESE,112,13.4,23.7,71,0.00,,,0.00,,2013-01-09 18:24:00,
2013-01-09 13:29:00,77.5,68.0,30.22,SE,135,15.0,25.7,71,0.00,,,0.00,,2013-01-09 18:29:00,
2013-01-09 13:34:00,77.6,68.0,30.21,SE,135,12.8,25.7,70,0.00,,,0.00,,2013-01-09 18:34:00,
2013-01-09 13:39:00,77.5,68.0,30.21,SSE,157,13.6,24.6,71,0.00,,,0.00,,2013-01-09 18:39:00,
2013-01-09 13:41:00,77.7,69.0,30.21,SSE,157,18.1,24.6,71,0.00,,,0.00,,2013-01-09 18:41:00,
2013-01-09 13:42:00,77.7,69.0,30.21,SE,135,9.2,24.6,71,0.00,,,0.00,,2013-01-09 18:42:00,
2013-01-09 13:44:00,77.8,69.0,30.21,ESE,112,19.9,24.6,71,0.00,,,0.00,,2013-01-09 18:44:00,
2013-01-09 13:45:00,77.8,69.0,30.21,ESE,112,15.9,24.6,71,0.00,,,0.00,,2013-01-09 18:45:00,
2013-01-09 13:48:00,77.8,69.0,30.21,ESE,112,17.2,23.5,71,0.00,,,0.00,,2013-01-09 18:48:00,
2013-01-09 13:49:00,77.8,69.0,30.21,SE,135,14.3,23.5,71,0.00,,,0.00,,2013-01-09 18:49:00,
2013-01-09 13:54:00,77.7,69.0,30.21,ESE,112,15.2,23.5,72,0.00,,,0.00,,2013-01-09 18:54:00,
2013-01-09 13:59:00,77.8,69.0,30.21,SE,135,15.4,21.3,72,0.00,,,0.00,,2013-01-09 18:59:00,
2013-01-09 14:04:00,77.9,69.0,30.21,ESE,112,12.3,23.0,71,0.00,,,0.00,,2013-01-09 19:04:00,
2013-01-09 14:09:00,77.9,69.0,30.21,SE,135,11.9,23.9,70,0.00,,,0.00,,2013-01-09 19:09:00,
2013-01-09 14:14:00,77.7,69.0,30.21,ESE,112,19.2,23.9,71,0.00,,,0.00,,2013-01-09 19:14:00,
2013-01-09 14:19:00,78.2,70.0,30.21,ESE,112,16.1,17.4,72,0.00,,,0.00,,2013-01-09 19:19:00,
2013-01-09 14:24:00,78.5,69.0,30.21,ESE,112,13.2,21.0,68,0.00,,,0.00,,2013-01-09 19:24:00,
2013-01-09 14:29:00,78.3,69.0,30.21,East,90,19.9,23.7,70,0.00,,,0.00,,2013-01-09 19:29:00,
2013-01-09 14:34:00,78.0,69.0,30.21,ESE,112,18.6,23.7,70,0.00,,,0.00,,2013-01-09 19:34:00,
2013-01-09 14:39:00,77.9,69.0,30.21,ESE,112,8.7,21.9,72,0.00,,,0.00,,2013-01-09 19:39:00,
2013-01-09 14:44:00,77.9,69.0,30.21,East,90,17.7,21.9,71,0.00,,,0.00,,2013-01-09 19:44:00,
2013-01-09 14:49:00,77.7,69.0,30.21,ESE,112,18.3,19.7,71,0.00,,,0.00,,2013-01-09 19:49:00,
2013-01-09 14:54:00,77.5,69.0,30.21,ESE,112,17.0,24.6,72,0.00,,,0.00,,2013-01-09 19:54:00,
2013-01-09 14:59:00,77.5,69.0,30.21,ESE,112,10.7,20.8,72,0.00,,,0.00,,2013-01-09 19:59:00,
2013-01-09 15:04:00,77.5,69.0,30.21,SE,135,7.4,21.9,72,0.00,,,0.00,,2013-01-09 20:04:00,
2013-01-09 15:09:00,78.0,69.0,30.21,SE,135,14.1,21.5,71,0.00,,,0.00,,2013-01-09 20:09:00,
2013-01-09 15:14:00,77.8,69.0,30.21,East,90,14.3,21.7,71,0.00,,,0.00,,2013-01-09 20:14:00,
2013-01-09 15:19:00,78.2,70.0,30.21,East,90,8.3,15.9,72,0.00,,,0.00,,2013-01-09 20:19:00,
2013-01-09 15:24:00,77.6,69.0,30.21,ESE,112,13.0,21.9,72,0.00,,,0.00,,2013-01-09 20:24:00,
2013-01-09 15:29:00,77.5,69.0,30.21,SE,135,11.2,19.2,73,0.00,,,0.00,,2013-01-09 20:29:00,
2013-01-09 15:34:00,77.4,69.0,30.21,ESE,112,10.3,19.2,73,0.00,,,0.00,,2013-01-09 20:34:00,
2013-01-09 15:39:00,77.5,68.0,30.21,SSE,157,8.7,18.8,70,0.00,,,0.00,,2013-01-09 20:39:00,
2013-01-09 15:44:00,77.6,68.0,30.21,ESE,112,12.8,23.7,69,0.00,,,0.00,,2013-01-09 20:44:00,
2013-01-09 15:49:00,77.9,69.0,30.21,ESE,112,14.1,17.7,70,0.00,,,0.00,,2013-01-09 20:49:00,
2013-01-09 15:54:00,77.9,68.0,30.21,ESE,112,13.6,21.5,70,0.00,,,0.00,,2013-01-09 20:54:00,
2013-01-09 15:59:00,77.9,68.0,30.21,East,90,12.1,16.6,69,0.00,,,0.00,,2013-01-09 20:59:00,
2013-01-09 16:04:00,78.0,69.0,30.21,SE,135,15.4,16.8,70,0.00,,,0.00,,2013-01-09 21:04:00,
2013-01-09 16:09:00,78.0,69.0,30.21,ESE,112,7.6,17.0,71,0.00,,,0.00,,2013-01-09 21:09:00,
2013-01-09 16:14:00,78.2,69.0,30.22,ESE,112,14.8,20.4,70,0.00,,,0.00,,2013-01-09 21:14:00,
2013-01-09 16:19:00,78.3,69.0,30.22,East,90,10.7,15.9,70,0.00,,,0.00,,2013-01-09 21:19:00,
2013-01-09 16:24:00,78.1,69.0,30.22,ESE,112,6.3,15.9,71,0.00,,,0.00,,2013-01-09 21:24:00,
2013-01-09 16:29:00,78.1,69.0,30.22,East,90,8.1,14.3,71,0.00,,,0.00,,2013-01-09 21:29:00,
2013-01-09 16:34:00,78.3,69.0,30.22,East,90,7.6,15.4,71,0.00,,,0.00,,2013-01-09 21:34:00,
2013-01-09 16:39:00,78.4,69.0,30.22,East,90,13.2,16.8,70,0.00,,,0.00,,2013-01-09 21:39:00,
2013-01-09 16:44:00,78.0,68.0,30.22,East,90,18.6,19.5,69,0.00,,,0.00,,2013-01-09 21:44:00,
2013-01-09 16:49:00,77.6,69.0,30.22,SE,135,9.2,15.2,71,0.00,,,0.00,,2013-01-09 21:49:00,
2013-01-09 16:54:00,78.0,69.0,30.23,SE,135,7.6,15.2,72,0.00,,,0.00,,2013-01-09 21:54:00,
2013-01-09 16:59:00,77.6,69.0,30.23,ESE,112,8.5,15.9,71,0.00,,,0.00,,2013-01-09 21:59:00,
2013-01-09 17:04:00,77.6,69.0,30.23,East,90,4.9,18.8,72,0.00,,,0.00,,2013-01-09 22:04:00,
2013-01-09 17:09:00,77.2,69.0,30.23,ESE,112,12.5,18.6,72,0.00,,,0.00,,2013-01-09 22:09:00,
2013-01-09 17:14:00,76.9,69.0,30.23,East,90,5.4,18.6,72,0.00,,,0.00,,2013-01-09 22:14:00,
2013-01-09 17:19:00,76.7,69.0,30.23,ESE,112,11.6,12.5,73,0.00,,,0.00,,2013-01-09 22:19:00,
2013-01-09 17:24:00,76.7,69.0,30.23,ESE,112,5.6,12.5,74,0.00,,,0.00,,2013-01-09 22:24:00,
2013-01-09 17:29:00,76.5,69.0,30.23,SE,135,3.1,12.3,74,0.00,,,0.00,,2013-01-09 22:29:00,
2013-01-09 17:34:00,76.3,68.0,30.23,ESE,112,9.2,14.1,74,0.00,,,0.00,,2013-01-09 22:34:00,
2013-01-09 17:39:00,76.2,69.0,30.23,East,90,7.4,13.6,75,0.00,,,0.00,,2013-01-09 22:39:00,
2013-01-09 17:44:00,76.0,68.0,30.24,ESE,112,13.2,16.3,74,0.00,,,0.00,,2013-01-09 22:44:00,
2013-01-09 17:49:00,75.8,68.0,30.24,ESE,112,10.1,14.3,75,0.00,,,0.00,,2013-01-09 22:49:00,
2013-01-09 17:54:00,75.9,68.0,30.24,East,90,12.1,14.5,75,0.00,,,0.00,,2013-01-09 22:54:00,
2013-01-09 17:59:00,75.8,69.0,30.24,East,90,7.8,11.9,76,0.00,,,0.00,,2013-01-09 22:59:00,
2013-01-09 18:04:00,75.9,69.0,30.24,ESE,112,3.1,11.9,76,0.00,,,0.00,,2013-01-09 23:04:00,
2013-01-09 18:09:00,75.7,69.0,30.25,ESE,112,8.3,10.7,77,0.00,,,0.00,,2013-01-09 23:09:00,
2013-01-09 18:14:00,75.6,69.0,30.25,ESE,112,9.2,12.3,77,0.00,,,0.00,,2013-01-09 23:14:00,
2013-01-09 18:19:00,75.5,69.0,30.25,SE,135,6.5,11.0,77,0.00,,,0.00,,2013-01-09 23:19:00,
2013-01-09 18:24:00,75.3,68.0,30.25,ESE,112,11.2,14.3,76,0.00,,,0.00,,2013-01-09 23:24:00,
2013-01-09 18:29:00,75.4,68.0,30.25,ESE,112,6.7,10.3,77,0.00,,,0.00,,2013-01-09 23:29:00,
2013-01-09 18:34:00,75.2,68.0,30.25,SE,135,6.5,13.2,77,0.00,,,0.00,,2013-01-09 23:34:00,
2013-01-09 18:39:00,75.3,69.0,30.25,ESE,112,3.8,8.7,77,0.00,,,0.00,,2013-01-09 23:39:00,
2013-01-09 18:44:00,75.3,69.0,30.25,ESE,112,5.4,11.0,78,0.00,,,0.00,,2013-01-09 23:44:00,
2013-01-09 18:49:00,75.2,69.0,30.25,ESE,112,9.6,12.3,78,0.00,,,0.00,,2013-01-09 23:49:00,
2013-01-09 18:54:00,75.3,69.0,30.25,East,90,6.7,12.8,78,0.00,,,0.00,,2013-01-09 23:54:00,
2013-01-09 18:59:00,75.2,69.0,30.25,East,90,6.3,12.5,78,0.00,,,0.00,,2013-01-09 23:59:00,
2013-01-09 19:04:00,75.2,69.0,30.26,East,90,4.3,12.5,78,0.00,,,0.00,,2013-01-10 00:04:00,
2013-01-09 19:09:00,75.2,69.0,30.26,ESE,112,6.3,12.8,78,0.00,,,0.00,,2013-01-10 00:09:00,
2013-01-09 19:14:00,75.1,69.0,30.26,ESE,112,6.0,12.8,78,0.00,,,0.00,,2013-01-10 00:14:00,
2013-01-09 19:19:00,74.9,68.0,30.26,ESE,112,8.9,16.3,78,0.00,,,0.00,,2013-01-10 00:19:00,
2013-01-09 19:24:00,75.1,69.0,30.26,East,90,6.5,16.3,78,0.00,,,0.00,,2013-01-10 00:24:00,
2013-01-09 19:29:00,75.1,69.0,30.26,SE,135,9.2,10.5,78,0.00,,,0.00,,2013-01-10 00:29:00,
2013-01-09 19:34:00,75.0,68.0,30.26,East,90,9.2,11.4,78,0.00,,,0.00,,2013-01-10 00:34:00,
2013-01-09 19:39:00,75.0,69.0,30.26,East,90,3.4,13.4,78,0.00,,,0.00,,2013-01-10 00:39:00,
2013-01-09 19:44:00,74.9,68.0,30.26,East,90,7.8,13.4,78,0.00,,,0.00,,2013-01-10 00:44:00,
2013-01-09 19:49:00,75.0,69.0,30.26,ESE,112,6.7,11.0,78,0.00,,,0.00,,2013-01-10 00:49:00,
2013-01-09 19:54:00,75.0,69.0,30.27,East,90,12.3,12.3,78,0.00,,,0.00,,2013-01-10 00:54:00,
2013-01-09 19:59:00,74.9,69.0,30.27,East,90,6.3,9.2,78,0.00,,,0.00,,2013-01-10 00:59:00,
2013-01-09 20:04:00,74.9,69.0,30.27,SE,135,5.6,13.9,78,0.00,,,0.00,,2013-01-10 01:04:00,
2013-01-09 20:09:00,74.8,68.0,30.27,ESE,112,3.6,8.5,78,0.00,,,0.00,,2013-01-10 01:09:00,
2013-01-09 20:14:00,74.8,69.0,30.27,East,90,4.3,14.1,78,0.00,,,0.00,,2013-01-10 01:14:00,
2013-01-09 20:19:00,74.8,68.0,30.27,SE,135,9.6,10.5,78,0.00,,,0.00,,2013-01-10 01:19:00,
2013-01-09 20:24:00,74.8,68.0,30.27,ESE,112,6.3,11.0,78,0.00,,,0.00,,2013-01-10 01:24:00,
2013-01-09 20:29:00,74.6,68.0,30.27,East,90,7.4,10.1,78,0.00,,,0.00,,2013-01-10 01:29:00,
2013-01-09 20:34:00,74.7,68.0,30.27,ENE,67,5.1,10.7,78,0.00,,,0.00,,2013-01-10 01:34:00,
2013-01-09 20:39:00,74.6,68.0,30.27,ESE,112,6.3,10.5,78,0.00,,,0.00,,2013-01-10 01:39:00,
2013-01-09 20:44:00,74.6,68.0,30.27,ESE,112,5.4,15.2,78,0.00,,,0.00,,2013-01-10 01:44:00,
2013-01-09 20:49:00,74.6,68.0,30.27,SE,135,3.8,9.8,78,0.00,,,0.00,,2013-01-10 01:49:00,
2013-01-09 20:54:00,74.6,68.0,30.27,ESE,112,10.7,12.1,78,0.00,,,0.00,,2013-01-10 01:54:00,
2013-01-09 20:59:00,74.5,68.0,30.27,ESE,112,7.8,9.2,78,0.00,,,0.00,,2013-01-10 01:59:00,
2013-01-09 21:04:00,74.4,68.0,30.28,ESE,112,7.4,12.5,78,0.00,,,0.00,,2013-01-10 02:04:00,
2013-01-09 21:09:00,74.4,68.0,30.28,SE,135,8.9,13.4,78,0.00,,,0.00,,2013-01-10 02:09:00,
2013-01-09 21:14:00,74.3,68.0,30.28,SE,135,7.6,13.4,78,0.00,,,0.00,,2013-01-10 02:14:00,
2013-01-09 21:19:00,74.4,68.0,30.28,ESE,112,6.7,9.4,78,0.00,,,0.00,,2013-01-10 02:19:00,
2013-01-09 21:24:00,74.4,68.0,30.28,ESE,112,6.5,9.6,78,0.00,,,0.00,,2013-01-10 02:24:00,
2013-01-09 21:29:00,74.3,68.0,30.28,ESE,112,4.5,10.5,78,0.00,,,0.00,,2013-01-10 02:29:00,
2013-01-09 21:34:00,74.2,68.0,30.28,ESE,112,7.4,10.5,78,0.00,,,0.00,,2013-01-10 02:34:00,
2013-01-09 21:39:00,74.2,68.0,30.28,ESE,112,9.8,9.8,79,0.00,,,0.00,,2013-01-10 02:39:00,
2013-01-09 21:44:00,74.2,68.0,30.28,SE,135,9.8,12.8,79,0.00,,,0.00,,2013-01-10 02:44:00,
2013-01-09 21:49:00,74.2,68.0,30.28,SE,135,4.5,12.5,79,0.00,,,0.00,,2013-01-10 02:49:00,
2013-01-09 21:54:00,74.1,68.0,30.28,SE,135,6.0,13.2,79,0.00,,,0.00,,2013-01-10 02:54:00,
2013-01-09 21:59:00,74.2,68.0,30.28,ESE,112,4.9,12.3,79,0.00,,,0.00,,2013-01-10 02:59:00,
2013-01-09 22:04:00,74.0,68.0,30.28,SE,135,10.7,14.3,78,0.00,,,0.00,,2013-01-10 03:04:00,
2013-01-09 22:09:00,74.1,68.0,30.28,ESE,112,9.8,16.1,78,0.00,,,0.00,,2013-01-10 03:09:00,
2013-01-09 22:14:00,74.2,68.0,30.28,SE,135,9.6,16.1,78,0.00,,,0.00,,2013-01-10 03:14:00,
2013-01-09 22:20:00,74.3,68.0,30.28,East,90,6.0,17.0,77,0.00,,,0.00,,2013-01-10 03:20:00,
2013-01-09 22:25:00,74.3,68.0,30.28,ESE,112,8.3,17.0,77,0.00,,,0.00,,2013-01-10 03:25:00,
2013-01-09 22:30:00,74.1,67.0,30.28,SE,135,7.2,15.7,77,0.00,,,0.00,,2013-01-10 03:30:00,
2013-01-09 22:35:00,74.2,68.0,30.28,ESE,112,4.9,15.7,77,0.00,,,0.00,,2013-01-10 03:35:00,
2013-01-09 22:40:00,74.2,67.0,30.28,ESE,112,8.5,13.6,77,0.00,,,0.00,,2013-01-10 03:40:00,
2013-01-09 22:45:00,74.1,67.0,30.28,ESE,112,16.1,16.1,77,0.00,,,0.00,,2013-01-10 03:45:00,
2013-01-09 22:50:00,74.2,67.0,30.28,ESE,112,8.1,15.4,77,0.00,,,0.00,,2013-01-10 03:50:00,
2013-01-09 22:55:00,74.3,67.0,30.28,East,90,5.8,15.4,77,0.00,,,0.00,,2013-01-10 03:55:00,
2013-01-09 23:00:00,74.3,68.0,30.28,ESE,112,8.7,13.0,78,0.00,,,0.00,,2013-01-10 04:00:00,
2013-01-09 23:05:00,74.4,68.0,30.28,East,90,4.9,13.0,79,0.00,,,0.00,,2013-01-10 04:05:00,
2013-01-09 23:10:00,74.4,68.0,30.27,East,90,5.6,11.6,79,0.00,,,0.00,,2013-01-10 04:10:00,